Weather in Turbiv

Ukraine / Vinnytsia Region     49°20′46″N   28°43′12″E
temp.,
°C
wind,
m/s
gust,
m/s
humid.,
%
clouds,
%
prec.,
mm/h
press.,
hPa
HPBL,
m
11 april, sun
sun1100:00+5s36600 0.0 102693
03:00+3s35620 0.0 102782
06:00+3s33630 0.0 102838
09:00+7sse35540 0.0 1029236
12:00+11sse44400 0.0 10281226
15:00+13sse34350 0.0 10271472
18:00+12se44380 0.0 10261470
21:00+8sse23520 0.0 102724
12 april, mon
mon1200:00+6ese33570 0.0 102724
03:00+5ese33610 0.0 102625
06:00+4ese22610 0.0 102512
09:00+8e23520 0.0 1024218
12:00+13e22410 0.0 1023987
15:00+15ene21370 0.0 10211271
18:00+15ene22400 0.0 10191273
21:00+11e22550 0.0 102021
13 april, tue
tue1300:00+8sse35850 0.0 102082
03:00+7ssw22840 0.0 102010
06:00+6sse11816 0.0 102010
09:00+10se22653 0.0 1019226
12:00+15sse33495 0.0 1018947
15:00+17sse334853 0.0 10171619
18:00+14se466598 0.0 1016295
21:00+11se488534 0.0 1017243
14 april, wed
wed1400:00+10sse4883100 0.0 1017359
03:00+10sse4881100 0.0 1015351
06:00+9se4782100 0.0 1015289
09:00+9sse5876100 0.0 1015394
12:00+10sse6867100 0.0 1015596
15:00+13se6857100 0.0 10131522
18:00+10se6977100 0.2 1013854
21:00+9se61083100 0.8 10141081
15 april, thu
thu1500:00+8se5984100 0.1 1013580
03:00+8ese4788100 0.6 1013399
06:00+7e4890100 0.0 1013371
09:00+8e3787100 0.0 1013343
12:00+10ene4880100 0.0 1013629
15:00+12ne6871100 0.2 10111040
18:00+8ssw3495100 2.3 1011209
21:00+8e1192100 2.7 101149